• In Austria
  • List of Countries
  • For 7 days
  • Water Temperature
  • Satellite Maps
  • Weather Map
  • News
  • Weather Widgets
  • user-avatar
    Login

    Hourly Weather Chinsali

    Today, 17 October, Wednesday

    Time Temperature Precipitation Wind Pressure Humidity
    00:00 +24°C° 0 mm 2 mps 646 mmHg 42%
    01:00 +24°C° 0 mm 2 mps 646 mmHg 45%
    02:00 +22°C° 0 mm 3 mps 646 mmHg 46%
    03:00 +21°C° 0 mm 3 mps 646 mmHg 49%
    04:00 +21°C° 0 mm 3 mps 646 mmHg 52%
    05:00 +20°C° 0 mm 2 mps 646 mmHg 55%
    06:00 +22°C° 0 mm 3 mps 647 mmHg 51%
    07:00 +25°C° 0 mm 3 mps 647 mmHg 46%
    08:00 +27°C° 0 mm 3 mps 648 mmHg 41%
    09:00 +29°C° 0 mm 3 mps 648 mmHg 35%
    10:00 +31°C° 0 mm 3 mps 648 mmHg 29%
    11:00 +34°C° 0 mm 3 mps 648 mmHg 24%
    12:00 +34°C° 0 mm 3 mps 647 mmHg 22%
    13:00 +35°C° 0 mm 3 mps 647 mmHg 21%
    14:00 +35°C° 0 mm 2 mps 646 mmHg 20%
    15:00 +35°C° 0 mm 2 mps 646 mmHg 21%
    16:00 +34°C° 0 mm 2 mps 645 mmHg 22%
    17:00 +32°C° 0 mm 2 mps 645 mmHg 23%
    18:00 +31°C° 0 mm 2 mps 645 mmHg 24%
    19:00 +30°C° 0 mm 2 mps 645 mmHg 26%
    20:00 +28°C° 0 mm 3 mps 646 mmHg 28%
    21:00 +27°C° 0 mm 2 mps 646 mmHg 30%
    22:00 +26°C° 0 mm 2 mps 645 mmHg 32%
    23:00 +25°C° 0 mm 2 mps 645 mmHg 35%

    Tomorrow, 18 October, Thursday

    Time Temperature Precipitation Wind Pressure Humidity
    00:00 +24°C° 0 mm 2 mps 645 mmHg 37%
    01:00 +24°C° 0 mm 2 mps 645 mmHg 39%
    02:00 +23°C° 0 mm 2 mps 644 mmHg 41%
    03:00 +22°C° 0 mm 1 mps 644 mmHg 44%
    04:00 +22°C° 0 mm 1 mps 644 mmHg 46%
    05:00 +22°C° 0 mm 1 mps 645 mmHg 49%
    06:00 +23°C° 0 mm 2 mps 645 mmHg 46%
    07:00 +25°C° 0 mm 2 mps 646 mmHg 43%
    08:00 +27°C° 0 mm 2 mps 647 mmHg 40%
    09:00 +29°C° 0 mm 2 mps 648 mmHg 35%
    10:00 +32°C° 0 mm 2 mps 648 mmHg 29%
    11:00 +35°C° 0 mm 2 mps 648 mmHg 24%
    12:00 +35°C° 0 mm 2 mps 647 mmHg 24%
    13:00 +33°C° 0 mm 1 mps 646 mmHg 25%
    14:00 +33°C° 0 mm 1 mps 646 mmHg 25%
    15:00 +32°C° 0 mm 1 mps 645 mmHg 26%
    16:00 +32°C° 0 mm 1 mps 645 mmHg 27%
    17:00 +31°C° 0 mm 1 mps 645 mmHg 28%
    18:00 +30°C° 0 mm 1 mps 645 mmHg 31%
    19:00 +28°C° 0 mm 1 mps 645 mmHg 34%
    20:00 +27°C° 0 mm 1 mps 645 mmHg 37%
    21:00 +26°C° 0 mm 1 mps 645 mmHg 38%
    22:00 +26°C° 0 mm 2 mps 646 mmHg 40%
    23:00 +26°C° 0 mm 2 mps 646 mmHg 41%

    Day after tomorrow, 19 October, Friday

    Time Temperature Precipitation Wind Pressure Humidity
    00:00 +25°C° 0 mm 2 mps 645 mmHg 44%
    01:00 +24°C° 0 mm 2 mps 645 mmHg 47%
    02:00 +23°C° 0 mm 2 mps 644 mmHg 49%
    03:00 +23°C° 0 mm 1 mps 645 mmHg 51%
    04:00 +23°C° 0 mm 1 mps 645 mmHg 52%
    05:00 +23°C° 0 mm 1 mps 645 mmHg 54%
    06:00 +24°C° 0 mm 1 mps 646 mmHg 50%
    07:00 +26°C° 0 mm 1 mps 647 mmHg 47%
    08:00 +27°C° 0 mm 2 mps 648 mmHg 44%
    09:00 +30°C° 0 mm 2 mps 648 mmHg 37%
    10:00 +32°C° 0 mm 2 mps 648 mmHg 31%
    11:00 +35°C° 0 mm 2 mps 649 mmHg 24%
    12:00 +35°C° 0 mm 3 mps 648 mmHg 23%
    13:00 +35°C° 0 mm 3 mps 647 mmHg 23%
    14:00 +35°C° 0 mm 3 mps 646 mmHg 22%
    15:00 +34°C° 0 mm 3 mps 646 mmHg 23%
    16:00 +34°C° 0 mm 3 mps 646 mmHg 24%
    17:00 +33°C° 0 mm 3 mps 645 mmHg 26%
    18:00 +30°C° 0 mm 3 mps 646 mmHg 28%
    19:00 +29°C° 0 mm 3 mps 646 mmHg 31%
    20:00 +28°C° 0 mm 3 mps 647 mmHg 34%
    21:00 +27°C° 0 mm 3 mps 647 mmHg 38%
    22:00 +26°C° 0 mm 3 mps 646 mmHg 41%
    23:00 +25°C° 0 mm 3 mps 646 mmHg 45%

    20 October, Saturday

    Time Temperature Precipitation Wind Pressure Humidity
    00:00 +24°C° 0 mm 2 mps 646 mmHg 49%
    01:00 +23°C° 0 mm 2 mps 645 mmHg 52%
    02:00 +21°C° 0 mm 2 mps 645 mmHg 56%
    03:00 +21°C° 0 mm 2 mps 645 mmHg 59%
    04:00 +20°C° 0 mm 2 mps 645 mmHg 61%
    05:00 +20°C° 0 mm 2 mps 645 mmHg 64%
    06:00 +23°C° 0 mm 2 mps 646 mmHg 58%
    07:00 +25°C° 0 mm 3 mps 648 mmHg 51%
    08:00 +27°C° 0 mm 3 mps 649 mmHg 44%
    09:00 +29°C° 0 mm 3 mps 649 mmHg 38%
    10:00 +33°C° 0 mm 3 mps 649 mmHg 31%
    11:00 +35°C° 0 mm 3 mps 649 mmHg 24%
    12:00 +35°C° 0 mm 3 mps 648 mmHg 23%
    13:00 +36°C° 0 mm 3 mps 647 mmHg 22%
    14:00 +36°C° 0 mm 3 mps 646 mmHg 20%
    15:00 +35°C° 0 mm 3 mps 646 mmHg 22%
    16:00 +34°C° 0 mm 3 mps 646 mmHg 25%
    17:00 +31°C° 0 mm 3 mps 646 mmHg 27%
    18:00 +30°C° 0 mm 3 mps 646 mmHg 29%
    19:00 +29°C° 0 mm 3 mps 646 mmHg 32%
    20:00 +28°C° 0 mm 3 mps 647 mmHg 34%
    21:00 +27°C° 0 mm 3 mps 647 mmHg 37%
    22:00 +26°C° 0 mm 3 mps 647 mmHg 40%
    23:00 +25°C° 0 mm 3 mps 647 mmHg 43%

    21 October, Sunday

    Time Temperature Precipitation Wind Pressure Humidity
    00:00 +24°C° 0 mm 3 mps 646 mmHg 47%
    01:00 +24°C° 0 mm 3 mps 646 mmHg 52%
    02:00 +22°C° 0 mm 3 mps 645 mmHg 56%
    03:00 +21°C° 0 mm 3 mps 645 mmHg 59%
    04:00 +21°C° 0 mm 2 mps 646 mmHg 61%
    05:00 +20°C° 0 mm 2 mps 646 mmHg 64%
    06:00 +23°C° 0 mm 2 mps 647 mmHg 57%
    07:00 +25°C° 0 mm 3 mps 648 mmHg 51%
    08:00 +27°C° 0 mm 3 mps 649 mmHg 44%
    09:00 +29°C° 0 mm 3 mps 649 mmHg 38%
    10:00 +31°C° 0 mm 3 mps 649 mmHg 32%
    11:00 +34°C° 0 mm 4 mps 649 mmHg 27%
    12:00 +34°C° 0 mm 3 mps 648 mmHg 27%
    13:00 +33°C° 0 mm 3 mps 647 mmHg 28%
    14:00 +31°C° 0 mm 3 mps 646 mmHg 28%
    15:00 +31°C° 0 mm 3 mps 646 mmHg 30%
    16:00 +30°C° 0 mm 3 mps 646 mmHg 31%
    17:00 +29°C° 0 mm 3 mps 646 mmHg 33%
    18:00 +28°C° 0.1 mm 3 mps 647 mmHg 37%
    19:00 +27°C° 0.1 mm 3 mps 647 mmHg 40%
    20:00 +26°C° 0.1 mm 3 mps 647 mmHg 44%
    21:00 +25°C° 0 mm 3 mps 647 mmHg 45%
    22:00 +25°C° 0 mm 3 mps 647 mmHg 47%
    23:00 +24°C° 0 mm 3 mps 647 mmHg 49%

    22 October, Monday

    Time Temperature Precipitation Wind Pressure Humidity
    00:00 +22°C° 0 mm 4 mps 647 mmHg 53%
    01:00 +22°C° 0 mm 4 mps 646 mmHg 57%
    02:00 +21°C° 0 mm 5 mps 646 mmHg 60%
    03:00 +20°C° 0 mm 5 mps 646 mmHg 64%
    04:00 +20°C° 0 mm 4 mps 646 mmHg 67%
    05:00 +19°C° 0 mm 4 mps 647 mmHg 71%
    06:00 +20°C° 0 mm 5 mps 647 mmHg 66%
    07:00 +22°C° 0 mm 5 mps 648 mmHg 61%
    08:00 +23°C° 0 mm 6 mps 649 mmHg 56%
    09:00 +26°C° 0 mm 6 mps 649 mmHg 50%
    10:00 +27°C° 0 mm 6 mps 649 mmHg 44%
    11:00 +29°C° 0 mm 5 mps 649 mmHg 38%
    12:00 +29°C° 0 mm 5 mps 648 mmHg 37%
    13:00 +30°C° 0 mm 5 mps 647 mmHg 35%
    14:00 +30°C° 0 mm 5 mps 647 mmHg 34%
    15:00 +29°C° 0 mm 5 mps 647 mmHg 35%
    16:00 +29°C° 0 mm 5 mps 647 mmHg 37%
    17:00 +28°C° 0 mm 5 mps 647 mmHg 39%
    18:00 +27°C° 0 mm 5 mps 647 mmHg 43%
    19:00 +25°C° 0 mm 5 mps 648 mmHg 46%
    20:00 +23°C° 0 mm 5 mps 648 mmHg 50%
    21:00 +22°C° 0 mm 5 mps 648 mmHg 54%
    22:00 +21°C° 0 mm 5 mps 648 mmHg 57%
    23:00 +20°C° 0 mm 5 mps 648 mmHg 61%
    Show more